Location: *
(40.7873°S, 98.7174°E)
Time: 00:23:47
(UTC+00:00)

ARIANE 6 FM1 Upper Stage - Pass Details

Date: 22 December 2025
Orbit: 522 x 610 km, 62.0° (Epoch: 20 January)

Event Time Altitude Azimuth Distance (km) Brightness Sun altitude
Rises 17:11:46 0° 213° (SSW) 2,909 7.2 -25.7°
Reaches altitude 10° 17:14:09 10° 207° (SSW) 1,993 6.3 -25.7°
Maximum altitude 17:18:33 49° 131° (SE) 798 3.6 -25.8°
Enters shadow 17:18:54 47° 115° (ESE) 810 3.5 -25.8°
